Simultaneous Nadir Overpasses (SNOs) Predictions

Prediction of SNOs between FY3D and TERRA Satellite Orbit:

Table of predicted SNOs for the next 14.0 days since TLE Epoch: 7/20/2024
Index Date (FY3D) Time (FY3D) Lat,Lon (FY3D) SZA (FY3D ) Date (TERRA) Time (TERRA) Lat,Lon (TERRA) SZA (TERRA ) Distance(km) Time Diff (sec)
1 07/21/2024 05:29:52 75.91, 97.71 55.47 07/21/2024 05:30:30 75.91, 97.68 55.47 1.06 38
2 07/21/2024 06:20:35 -75.85, -94.76 124.59 07/21/2024 06:19:53 -75.83, -94.88 124.60 3.64 42
3 07/23/2024 16:42:43 75.96, -70.61 56.02 07/23/2024 16:43:34 75.95, -70.51 56.01 2.77 51
4 07/23/2024 17:33:26 -75.90, 96.92 124.04 07/23/2024 17:32:57 -75.88, 96.93 124.06 2.07 29
5 07/26/2024 03:55:34 75.97, 121.20 56.56 07/26/2024 03:56:39 75.95, 121.19 56.55 1.37 65
6 07/26/2024 04:46:17 -75.91, -71.28 123.50 07/26/2024 04:46:01 -75.93, -71.23 123.48 2.73 16
7 07/28/2024 15:08:30 76.21, -47.84 57.38 07/28/2024 15:09:40 76.11, -46.64 57.27 33.90 70
8 07/28/2024 15:59:08 -75.93, 120.49 122.91 07/28/2024 15:59:05 -75.94, 120.49 122.90 1.06 3
9 07/28/2024 16:49:41 75.31, -70.19 56.48 07/28/2024 16:48:36 75.40, -73.35 56.59 89.52 65
10 07/31/2024 03:11:59 -75.96, -47.77 122.28 07/31/2024 03:12:08 -75.95, -47.76 122.28 0.62 9
11 07/31/2024 04:02:43 75.85, 119.89 57.63 07/31/2024 04:01:30 75.87, 119.66 57.65 6.56 73
12 08/02/2024 14:24:50 -76.00, 143.93 121.61 08/02/2024 14:25:10 -75.98, 144.01 121.63 3.29 20



Historial Predications of SNOs between FY3D and TERRA
